Location: Clarion
(42.7316°N, 93.7330°W)
Time: 09:54:33
(UTC+00:00)

ATLAS 2AS CENTAUR R/B - Pass Details

Date: 22 April 2026
Orbit: 1052 x 1158 km, 63.7° (Epoch: 17 May)

Event Time Altitude Azimuth Distance (km) Brightness Sun altitude
Exits shadow 05:31:52 47° 53° (NE) 1,393 3.3 -34.2°
Drops below altitude 10° 05:36:37 10° 39° (NE) 2,898 5.4 -34.4°
Sets 05:39:14 0° 38° (NE) 3,847 6.1 -34.5°
